Location: Borea
(45.6167°N, 23.0167°E)
Time: 15:28:46
(UTC+00:00)

FENGYUN 1C DEB - Pass Details

Date: 26 February 2024
Orbit: 561 x 661 km, 99.3° (Epoch: 16 April)

Event Time Altitude Azimuth Distance (km) Brightness Sun altitude
Rises 04:04:18 0° 3° (N) 3,100 ? -12.8°
Reaches altitude 10° 04:07:00 10° 349° (NNW) 2,160 ? -12.3°
Maximum altitude 04:10:35 22° 299° (WNW) 1,481 ? -11.7°
Enters shadow 04:12:58 15° 261° (W) 1,787 ? -11.2°
